{"data":{"norad_id":62039,"intl_designator":"2024-216H","name":"STARLINK-32480","alt_names":[],"object_type":"PAYLOAD","status":"ACTIVE","operator":null,"country":"US","launch_date":"2024-11-21","launch_site_code":"AFETR","launch_vehicle":null,"mission":null,"orbit_class":"UNKNOWN","rcs_meters":null,"size_class":null,"mass_kg":null,"dimensions":null,"purposes":["comms"],"wikipedia_slug":null,"has_3d_model":false,"image_url":null,"decayed_at":null,"tle_current":{"epoch":"2026-09-21T21:59:49.014528Z","epoch_age_seconds":63167,"freshness":"FRESH","line1":"1 62039U 24216H   26264.91653952  .00018096  00000+0  66539-3 0  9990","line2":"2 62039  42.9984 228.3384 0001373 264.4498  95.6197 15.27585619102727","mean_motion":15.27585619,"eccentricity":0.0001373,"inclination_deg":42.9984,"raan_deg":228.3384,"arg_perigee_deg":264.4498,"mean_anomaly_deg":95.6197,"bstar":0.00066539,"rev_number":10272,"period_min":94.266401967221,"perigee_km":482.09023224292,"apogee_km":483.97430932468,"semimajor_km":6861.1692707838,"source":"CELESTRAK","updated_at":"2026-09-22T09:00:49.487650Z"}}}